KLM591 EHAM-FAOR

Flight info

Callsign KLM591
Flight time N/A
Altitude 23000
Route WOODY N872 CIV/N0487F330 N872 MEDIL DCT KOVIN DCT DUCRA UM728 RESMI UN857 DISAK DCT DIRMO DCT ETAMO DCT ADEKA DCT MOKDI DCT MEN DCT AMLIR DCT FJR DCT DIVKO DCT JUSQO DCT FIRRA DCT SUXER DCT KAMER UM998 CSO UA605 NAGAH/N0491F350 UA605 DJA UB730 DIR UM731 ILDIV/N0491F370 UM731 RUDAS UQ25 ITROL/N0488F380 UQ44 AVAGO AVAGO1C
Aircraft B77W/H-SDE1E2E3FGHIJ2J3J4J5M1RWXY/LB1D1

Departure

Time 2026-04-30 19:31
Airport Amsterdam Airport Schiphol (EHAM)

Arrival

Time N/A
Airport O.R. Tambo International Airport (FAOR)
Time Latitude Longitude Altitude Speed Heading
2026-04-30 19:06 52.31232 4.76328 2 ft 0 kts 267°
2026-04-30 19:21 52.31231 4.76364 4 ft 4 kts 289°
2026-04-30 19:21 52.31193 4.76411 5 ft 4 kts 358°
2026-04-30 19:22 52.31167 4.76408 4 ft 0 kts 12°
2026-04-30 19:25 52.31203 4.76421 5 ft 15 kts 12°
2026-04-30 19:26 52.31346 4.76433 2 ft 7 kts 345°
2026-04-30 19:26 52.31441 4.76384 2 ft 7 kts 342°
2026-04-30 19:26 52.31490 4.76352 2 ft 11 kts 328°
2026-04-30 19:27 52.31529 4.75939 2 ft 21 kts 266°
2026-04-30 19:27 52.31515 4.75474 2 ft 20 kts 265°
2026-04-30 19:28 52.31504 4.75241 2 ft 20 kts 266°
2026-04-30 19:28 52.31490 4.74808 2 ft 12 kts 267°
2026-04-30 19:29 52.31552 4.74666 3 ft 2 kts 350°
2026-04-30 19:29 52.31592 4.74660 4 ft 8 kts
2026-04-30 19:30 52.31669 4.74781 4 ft 0 kts 86°
2026-04-30 19:30 52.31679 4.75026 -2 ft 52 kts 86°
2026-04-30 19:31 52.31769 4.77611 2 ft 166 kts 85°
2026-04-30 19:31 52.31853 4.79616 259 ft 182 kts 87°
2026-04-30 19:31 52.31649 4.83562 1657 ft 166 kts 133°
2026-04-30 19:32 52.30545 4.84348 1859 ft 195 kts 175°
2026-04-30 19:32 52.29139 4.83943 2029 ft 210 kts 174°
2026-04-30 19:32 52.27684 4.84334 2196 ft 218 kts 161°
2026-04-30 19:32 52.26152 4.84835 2628 ft 230 kts 166°
2026-04-30 19:33 52.24504 4.84887 3155 ft 241 kts 178°
2026-04-30 19:33 52.22824 4.84779 3883 ft 241 kts 177°
2026-04-30 19:33 52.21138 4.84721 4496 ft 246 kts 177°
2026-04-30 19:33 52.19416 4.84670 5085 ft 251 kts 177°
2026-04-30 19:34 52.17664 4.84620 5722 ft 252 kts 177°
2026-04-30 19:34 52.15924 4.84586 6342 ft 255 kts 176°
2026-04-30 19:34 52.12312 4.84516 7458 ft 263 kts 176°
2026-04-30 19:35 52.10478 4.84481 8041 ft 265 kts 177°
2026-04-30 19:35 52.08624 4.84438 8631 ft 267 kts 177°
2026-04-30 19:35 52.06749 4.84398 9212 ft 270 kts 178°
2026-04-30 19:35 52.04901 4.83753 9599 ft 279 kts 200°
2026-04-30 19:36 52.03113 4.82387 10099 ft 285 kts 201°
2026-04-30 19:36 52.01324 4.80986 10610 ft 289 kts 201°
2026-04-30 19:36 51.97446 4.78012 10944 ft 328 kts 201°
2026-04-30 19:37 51.95315 4.76417 11112 ft 348 kts 201°
2026-04-30 19:37 51.93057 4.74737 11365 ft 364 kts 201°
2026-04-30 19:37 51.90719 4.73001 11875 ft 374 kts 201°
2026-04-30 19:37 51.88325 4.71232 12564 ft 380 kts 201°
2026-04-30 19:38 51.85995 4.69512 13327 ft 383 kts 201°
2026-04-30 19:38 51.83583 4.67741 14126 ft 387 kts 202°
2026-04-30 19:38 51.81115 4.65930 14820 ft 391 kts 201°
2026-04-30 19:38 51.78627 4.64112 15512 ft 395 kts 201°
2026-04-30 19:39 51.76108 4.62273 16202 ft 398 kts 201°
2026-04-30 19:39 51.73570 4.60421 16900 ft 402 kts 201°
2026-04-30 19:39 51.71010 4.58558 17593 ft 406 kts 201°
2026-04-30 19:39 51.68423 4.56679 18275 ft 410 kts 201°
2026-04-30 19:40 51.65804 4.54780 18883 ft 414 kts 202°
2026-04-30 19:40 51.63159 4.52863 19459 ft 418 kts 201°
2026-04-30 19:40 51.60494 4.50929 20045 ft 421 kts 201°
2026-04-30 19:40 51.57812 4.48990 20640 ft 425 kts 201°
2026-04-30 19:41 51.55098 4.47034 21203 ft 429 kts 201°
2026-04-30 19:41 51.52366 4.45066 21756 ft 432 kts 201°
2026-04-30 19:41 51.49613 4.43086 22318 ft 436 kts 201°
2026-04-30 19:41 51.46807 4.41149 22858 ft 440 kts 200°
2026-04-30 19:42 51.44936 4.39895 23185 ft 442 kts 200°
2026-04-30 19:42 51.41124 4.37367 23261 ft 444 kts 200°
2026-04-30 19:42 51.38273 4.35479 23272 ft 443 kts 200°
2026-04-30 19:42 51.35455 4.33615 23266 ft 443 kts 200°
2026-04-30 19:43 51.32609 4.31727 23288 ft 443 kts 200°
2026-04-30 19:43 51.29765 4.29833 23287 ft 443 kts 200°
2026-04-30 19:43 51.26918 4.27936 23283 ft 442 kts 200°
2026-04-30 19:44 51.21232 4.24157 23285 ft 442 kts 200°
2026-04-30 19:44 51.19349 4.22907 23289 ft 443 kts 200°
2026-04-30 19:44 51.16496 4.21016 23408 ft 446 kts 200°
2026-04-30 19:44 51.13613 4.19107 23919 ft 450 kts 200°
2026-04-30 19:45 51.10720 4.17193 24423 ft 451 kts 200°
2026-04-30 19:45 51.07809 4.15270 24900 ft 453 kts 200°
2026-04-30 19:45 51.04888 4.13342 25358 ft 456 kts 200°
2026-04-30 19:45 51.01949 4.11407 25787 ft 459 kts 200°
2026-04-30 19:46 50.99107 4.09536 26191 ft 461 kts 200°
2026-04-30 19:46 50.96130 4.07581 26605 ft 464 kts 200°
2026-04-30 19:46 50.93125 4.05613 27019 ft 467 kts 200°
2026-04-30 19:46 50.90115 4.03642 27412 ft 469 kts 200°
2026-04-30 19:47 50.87116 4.01679 27833 ft 472 kts 200°
2026-04-30 19:47 50.85065 4.00337 28095 ft 473 kts 200°
2026-04-30 19:47 50.81152 3.97783 28568 ft 476 kts 200°
2026-04-30 19:47 50.78073 3.95779 28870 ft 480 kts 200°
2026-04-30 19:48 50.74977 3.93764 29196 ft 483 kts 200°
2026-04-30 19:48 50.71866 3.91742 29526 ft 485 kts 200°
2026-04-30 19:48 50.68739 3.89715 29858 ft 486 kts 199°
2026-04-30 19:48 50.65608 3.87688 30197 ft 487 kts 199°
2026-04-30 19:49 50.62473 3.85660 30550 ft 487 kts 199°
2026-04-30 19:49 50.56212 3.81617 31307 ft 483 kts 199°
2026-04-30 19:49 50.53106 3.79616 31676 ft 482 kts 199°
2026-04-30 19:50 50.50005 3.77621 32001 ft 481 kts 199°
2026-04-30 19:50 50.46907 3.75632 32331 ft 481 kts 200°
2026-04-30 19:50 50.43873 3.73686 32655 ft 480 kts 200°
2026-04-30 19:50 50.40768 3.71698 32970 ft 479 kts 200°
2026-04-30 19:51 50.37675 3.69719 33161 ft 481 kts 200°
2026-04-30 19:51 50.34567 3.67735 33199 ft 482 kts 199°
2026-04-30 19:51 50.28422 3.63666 33196 ft 476 kts 201°
2026-04-30 19:52 50.22352 3.59529 33212 ft 475 kts 201°
2026-04-30 19:52 50.16279 3.55413 33214 ft 476 kts 200°
2026-04-30 19:53 50.10188 3.51319 33217 ft 477 kts 200°
2026-04-30 19:53 50.04119 3.47257 33208 ft 478 kts 200°
2026-04-30 19:54 49.98014 3.43184 33207 ft 478 kts 200°
2026-04-30 19:54 49.91886 3.39104 33209 ft 479 kts 200°
2026-04-30 19:55 49.85763 3.35036 33203 ft 478 kts 200°
2026-04-30 19:55 49.79640 3.30984 33204 ft 478 kts 200°
2026-04-30 19:56 49.73524 3.26944 33192 ft 478 kts 200°
2026-04-30 19:56 49.67442 3.22942 33206 ft 477 kts 200°
2026-04-30 19:57 49.61332 3.18929 33190 ft 477 kts 200°
2026-04-30 19:57 49.55231 3.14927 33184 ft 476 kts 200°
2026-04-30 19:58 49.49155 3.10863 33195 ft 477 kts 204°
2026-04-30 19:58 49.43475 3.05543 33194 ft 478 kts 211°
2026-04-30 19:59 49.38026 2.99912 33179 ft 478 kts 211°
2026-04-30 20:00 49.29776 2.91516 33177 ft 478 kts 210°
2026-04-30 20:00 49.24225 2.85922 33183 ft 478 kts 210°
2026-04-30 20:01 49.15891 2.77554 33183 ft 478 kts 210°
2026-04-30 20:01 49.10363 2.72023 33181 ft 478 kts 210°
2026-04-30 20:02 49.04796 2.66458 32922 ft 479 kts 212°
2026-04-30 20:02 49.01996 2.63671 32948 ft 480 kts 213°
2026-04-30 20:03 48.93578 2.55298 33008 ft 485 kts 213°
2026-04-30 20:03 48.87902 2.49675 33011 ft 489 kts 213°
2026-04-30 20:04 48.82181 2.44018 33011 ft 492 kts 213°
2026-04-30 20:05 48.73510 2.35472 33008 ft 498 kts 213°
2026-04-30 20:05 48.64784 2.26907 33009 ft 502 kts 213°
2026-04-30 20:06 48.58926 2.21519 32999 ft 505 kts 206°
2026-04-30 20:06 48.52350 2.17678 33008 ft 508 kts 195°
2026-04-30 20:07 48.45476 2.15425 33010 ft 510 kts 191°
2026-04-30 20:08 48.35002 2.12159 33008 ft 513 kts 192°
2026-04-30 20:08 48.27909 2.10818 33006 ft 515 kts 181°
2026-04-30 20:09 48.20746 2.11455 33000 ft 517 kts 171°
2026-04-30 20:09 48.10063 2.13543 33000 ft 519 kts 178°
2026-04-30 20:10 47.99229 2.14063 33000 ft 521 kts 178°
2026-04-30 20:11 47.88343 2.14642 33002 ft 522 kts 178°
2026-04-30 20:11 47.81053 2.15072 33000 ft 523 kts 178°
2026-04-30 20:12 47.70138 2.15709 33003 ft 524 kts 178°
2026-04-30 20:13 47.62894 2.16125 33000 ft 524 kts 178°
2026-04-30 20:13 47.55598 2.16545 33002 ft 525 kts 178°
2026-04-30 20:14 47.48296 2.16962 33002 ft 525 kts 178°
2026-04-30 20:14 47.40983 2.17380 33003 ft 525 kts 178°
2026-04-30 20:15 47.33668 2.17798 33000 ft 526 kts 178°
2026-04-30 20:15 47.26354 2.18213 33002 ft 526 kts 178°
2026-04-30 20:16 47.19077 2.18625 32999 ft 526 kts 178°
2026-04-30 20:16 47.11765 2.19299 32997 ft 526 kts 172°
2026-04-30 20:17 47.04640 2.21689 33009 ft 526 kts 162°
2026-04-30 20:17 46.97833 2.25604 33009 ft 526 kts 158°
2026-04-30 20:18 46.91051 2.29694 32999 ft 527 kts 158°
2026-04-30 20:18 46.84290 2.33821 32999 ft 527 kts 154°
2026-04-30 20:19 46.78003 2.39335 33006 ft 527 kts 146°
2026-04-30 20:19 46.71889 2.45286 33000 ft 528 kts 147°
2026-04-30 20:20 46.65757 2.51173 33001 ft 528 kts 147°
2026-04-30 20:20 46.59605 2.57007 33002 ft 528 kts 147°
2026-04-30 20:21 46.53479 2.62784 33001 ft 528 kts 147°
2026-04-30 20:21 46.47317 2.68589 33002 ft 528 kts 147°
2026-04-30 20:22 46.41149 2.74386 33001 ft 528 kts 147°
2026-04-30 20:22 46.34984 2.80165 33002 ft 528 kts 147°